Terminal Aerodrome Forecast
Issued by NWS Louisville, KY

Home | Current Version | Previous Version | Text Only | Print | Product List | Glossary On
Versions: 1 2 3 4 5 6 7 8 9 10 11 12 13 14 15 16 17 18 19
000
FTUS43 KLMK 160900 AAF
TAFSDF
TAF AMD
KSDF 160923Z 1609/1712 35007KT 5SM BR OVC007
     FM161400 36007KT P6SM OVC020
     FM162100 01005KT P6SM SCT035=

USA.gov is the U.S. government's official web portal to all federal, state and local government web resources and services.